Orbital Elements at Epoch 2459000.5 (2020-May-31.0) TDB
Reference: JPL 16 (heliocentric ecliptic J2000)
Element | Value | Uncertainty (1-sigma) | Units |
e | .2316591917900424 | 5.9764e-08 | |
a | 2.377439358928935 | 1.1526e-08 | au |
q | 1.826683678509621 | 1.4013e-07 | au |
i | 5.663835083592056 | 6.5745e-06 | deg |
node | 161.0139679429211 | 4.8722e-05 | deg |
peri | 236.3544303185419 | 5.0234e-05 | deg |
M | 77.45228169291106 | 1.1096e-05 | deg |
tp | 2458712.432466046123 (2019-Aug-16.93246605) | 4.0883e-05 | TDB |
period | 1338.944572796071 3.67 | 9.7371e-06 2.666e-08 | d yr |
n | .2688684859061976 | 1.9553e-09 | deg/d |
Q | 2.928195039348248 | 1.4196e-08 | au |
|
| | Orbit Determination Parameters
Additional Information
|